Regional Weather Roundup
Issued by NWS Wakefield, VA

Home | Current Version | Previous Version | Graphics & Text | Print | Product List | Glossary On
Versions: 1 2 3 4 5 6 7 8 9 10 11 12 13 14 15 16 17 18 19 20 21 22 23 24 25 26 27 28 29 30 31 32 33 34 35 36 37 38 39 40 41 42 43 44 45 46 47 48
000
ASUS41 KAKQ 302010
RWRAKQ

REGIONAL WEATHER ROUNDUP
NATIONAL WEATHER SERVICE WAKEFIELD VA
400 PM EDT TUE SEP 30 2014

Note: "fair" indicates few or no clouds below 12,000 feet with no
significant weather and/or obstructions to visibility. * = Denotes
station may not report precipitation (e.g., rain,snow,etc.),
thunder or fog.

VAZ042-051-052>054-056-302100-
NORTHERN VIRGINIA

CITY           SKY/WX    TMP DP  RH WIND       PRES   REMARKS
WASH NATIONAL  MOSUNNY   77  60  55 S3        29.88F
DULLES         MOSUNNY   72  61  68 VRB5      29.88F
FORT BELVOIR   SUNNY     73  62  68 VRB3      29.88F
QUANTICO       MOSUNNY   72  61  68 SW6       29.89S
FREDERICKSBRG* SUNNY     74  62  65 SW3       29.87F
STAFFORD*      SUNNY     72  61  68 CALM      29.92F
WARRENTON      PTSUNNY   72  66  82 CALM      29.88F
CULPEPER*      CLOUDY    72  63  73 E3        29.89F
MANASSAS*      NOT AVBL
LEESBURG*      MOSUNNY   73  64  73 S7        29.89S
WINCHESTER     SUNNY     73  61  64 E10       29.87S HAZE
FRONT ROYAL*   CLEAR     72  63  73 E6        29.84F
LURAY*         CLEAR     81  61  50 E9        29.84S
$$

VAZ048-049-060>072-079>083-302100-
CENTRAL AND SOUTH CENTRAL VIRGINIA...AND NORTH CENTRAL NORTH CAROLINA

CITY           SKY/WX    TMP DP  RH WIND       PRES   REMARKS
RICHMOND       MOSUNNY   74  62  66 CALM      29.88F
CHESTERFIELD*  CLOUDY   N/A N/A N/A CALM      29.89F
PETERSBURG*    CLOUDY    73  60  63 NW6       29.89F
HANOVER        PTSUNNY   73  62  68 E3        29.89F
TAPPAHANNOCK*  CLOUDY    73  59  59 CALM      29.89F
CHARLOTTSVILLE CLOUDY    71  63  75 CALM      29.88F
ORANGE*        CLOUDY    70  61  73 SE5       29.90F
LOUISA*        CLOUDY    68  63  83 SE3       29.88F
FARMVILLE*     CLOUDY    72  63  73 E3        29.86F
CREWE*         CLOUDY    70  62  76 E5        29.88F
FORT PICKETT*  MOCLDY    70  63  78 N3        29.89S
LUNENBURG*     PTCLDY   -35 -40  75 E3        29.88F
SOUTH HILL*    MOSUNNY   72  66  83 CALM      29.93F
LAWRENCEVILLE* MOCLDY    73  64  74 CALM      29.87F
ROANOKE RAPIDS CLOUDY    70  63  78 NE3       29.88F
RALEIGH        MOSUNNY   73  62  68 CALM      29.88F
$$

VAZ088>098-302100-
SOUTHEAST VIRGINIA

CITY           SKY/WX    TMP DP  RH WIND       PRES   REMARKS
NORFOLK        SUNNY     74  63  68 NE10      29.87S
VIRGINIA BEACH MOSUNNY   76  60  57 NE9       29.86S
NORFOLK NAVAL  MOSUNNY   75  64  68 NE12      29.89R
WEST POINT*    SUNNY     76  61  59 CALM      29.89F
NEWPORT NEWS   MOSUNNY   78  61  55 E5        29.87S
LANGLEY AFB    SUNNY     75  63  66 NE8       29.88S
FORT EUSTIS    PTSUNNY   75  75 100 E5        29.86S
WILLIAMSBURG*  SUNNY     75  66  73 CALM      29.88S
HR EXEC AP*    PTCLDY    79  63  57 N6        29.88S
FRANKLIN*      SUNNY     77  61  57 N5        29.87S
WAKEFIELD      MOSUNNY   76  63  64 CALM      29.87S
$$

VAZ020-022-025-037-045-302100-
WEST CENTRAL AND SOUTHWEST VIRGINIA

CITY           SKY/WX    TMP DP  RH WIND       PRES   REMARKS
STAUNTON*      MOSUNNY   82  53  37 S10       29.87S
HOT SPRINGS VA SUNNY     69  29  22 W8        29.99F
LYNCHBURG      SUNNY     78  60  53 SE6       29.87F
DANVILLE       SUNNY     79  64  60 CALM      29.87F
SOUTH BOSTON*  NOT AVBL
MARTINSVILLE   MOSUNNY   83  55  37 NW7       29.89F
ROANOKE        MOSUNNY   82  50  32 W8        29.89S
BLACKSBURG     MOSUNNY   79  61  53 NW3       29.94F
DUBLIN*        SUNNY     78  56  46 NW7       29.94S
MARION*        MOSUNNY   75  54  48 W9        29.98S
HILLSVILLE*    MOSUNNY   72  55  53 NW8       29.96S
RICHLANDS*     PTCLDY    74  53  49 N3        29.97S
WISE*          SUNNY     75  45  33 NW7       29.99S
ABINGDON*      MOSUNNY   78  56  45 NW5       29.94F
$$

MDZ021>025-VAZ099-100-302100-
SOUTHERN MARYLAND AND THE DELMARVA PENINSULA

CITY           SKY/WX    TMP DP  RH WIND       PRES   REMARKS
PATUXENT RIVER MOSUNNY   75  60  59 SE5       29.87F
BAY BRIDGE APT   N/A     73  61  64 W5        29.87F
LEONARDTOWN    MOSUNNY   75  59  57 CALM      29.89F
DOVER          MOSUNNY   72  59  63 E6        29.87F
GEORGETOWN     MOSUNNY   74  61  63 E8        29.89S
EASTON         MOSUNNY   77  59  53 CALM      29.90F
CAMBRIDGE      SUNNY     77  59  53 CALM      29.87S
SALISBURY      PTSUNNY   77  62  59 E6        29.88R
OCEAN CITY     PTSUNNY   73  63  70 E7        29.89S
WALLOPS ISLAND SUNNY     75  65  70 E10       29.89R
ACCOMACK*      MOSUNNY   72  61  68 E8        29.88S
$$

NCZ012>017-030>032-302100-
EASTERN NORTH CAROLINA

CITY           SKY/WX    TMP DP  RH WIND       PRES   REMARKS
ELIZABETH CITY SUNNY     77  63  61 NE12      29.85S
AHOSKIE*       MOSUNNY   74  63  69 N3        29.87S
EDENTON*       PTSUNNY   76  64  64 S6        29.85S
CURRITUCK*     SUNNY     75  62  63 NE9       29.87S
KILL DEVIL HLS SUNNY     74  63  66 N5        29.84S
MANTEO         SUNNY     74  60  61 NE10      29.85S
CAPE HATTERAS  SUNNY     72  65  78 NE8G21    29.83S
TARBORO*       PTCLDY    76  65  67 NW5       29.87F
GOLDSBORO      MOSUNNY   79  68  69 CALM      29.83F
WASHINGTON     SUNNY     78  62  57 N7        29.84S
GREENVILLE     MOSUNNY   81  64  57 NE8       29.87F
NEW BERN       MOSUNNY   81  63  54 NE8G16    29.84F
WILMINGTON     MOSUNNY   82  64  54 NE7       29.82F
$$

VAZ048-302100-
ELSEWHERE

CITY           SKY/WX    TMP DP  RH WIND       PRES   REMARKS
HARRISBURG PA  PTSUNNY   71  62  73 W6        29.87F
BALTIMORE      MOSUNNY   76  61  59 E6        29.87S
ANNAPOLIS      SUNNY     73  62  68 SE7       29.87F
ANDREWS AFB    SUNNY     76  61  59 SE6       29.87F
WILMINGTON DE  SUNNY     76  60  57 E6        29.89F
PHILADELPHIA   PTSUNNY   77  55  46 S5        29.89S
WILDWOOD NJ*   MOSUNNY   72  61  68 E10       29.91S
ATLANTIC CITY  SUNNY     72  59  63 E12       29.90S
HENDERSON NC   MOSUNNY   71  62  72 CALM      29.89S
GREENSBORO     MOSUNNY   78  58  49 NE7       29.87F
ROCKY MOUNT    SUNNY     73  63  70 N5        29.87F
FAYETTEVILLE   SUNNY     80  64  58 N7        29.85S
CHARLOTTE      MOSUNNY   82  55  39 NW3       29.88F
$$

VAZ100-302100-
MARINE

STATION/POSITION TIME  TEMP    WIND        PRES    WAVE   SWELL
                       AIR SEA DIR/SP/G            HT/PER HT/PER
                 (UTC) (F)     (DEG/KT/KT) (MB)    (FT/S) (FT/S)
44066 TX TWR #4  2000   67 69   70/  8/ 10 1012.0F   3/ 5   3/ 5
CAPE MAY NJ      2000   71 74  100/  8/ 12 1011.9S
LEWES DE         2000   69 71   90/  9/ 11 1012.1S
15NM E FENWICK I 2000   69 71              1011.9S   2/14
OCEAN-CITY-INLET 2000   71 71   70/  7/ 10 1011.8S
WACHAPREAGUE VA  2000   71 74   80/  9/ 10 1011.7S
THOMAS POINT MD  2000   71 73  180/  2/  2 1012.5F
GOOSES REEF MD   2000   74     220/  2/  2 1012.4F
COVE POINT MD    2000   70     160/  4/  5 1011.6F
SOLOMONS ISLAND  2000      74                N/A
BISHOPS HEAD MD  2000   71 77  260/  7/  8 1011.4S
PINEY POINT MD   2000          180/  3/  4   N/A
POTOMAC MD       2000   72     200/  2/  2 1011.4F
CAMBRIDGE MD     2000   74 71  330/  5/  6 1011.3F
LEWISETTA VA     2000   70 71  110/  5/  5 1011.5F
RAPPAHANNOCK LGT 2000          320/  9/ 10 1012.2S
STINGRAY PT      2000   71      30/  4/  6   N/A
YORK RVR RNG VA  2000   72      80/  3/  4 1011.2F
YORKTOWN VA      2000   72      80/  5/  6 1011.3S
JAMESTOWN VA     2000   71     300/  2/  4   N/A
DOMINION TERM VA 2000   72      70/  5/  7 1011.6R
KIPTOPEKE VA     2000      76  100/  5/  8   N/A
CHES BAY BRIDGE  2000   70 72   30/  7/  8 1011.1S
CHESAPEAKE LGHT  1900   70      40/ 11/ 12 1012.1F
WILLOUBY STN VA  2000   70      40/  8/  9 1010.4R
S CRANEY ISL VA  2000          360/  7/  8 1011.1R
CAPE HENRY BUOY  2000      74                N/A     2/14   2/14
1ST LANDING BUOY 2000   71      50/  8/ 12 1011.4S
CAPE CHARLES BUO 2000      73                N/A     2/14   2/14
OFFSHORE WE BUOY 2000      74                N/A     2/14   2/14
64NM E OF VA BCH 2000   70 73   40/ 10/ 12 1010.6F   2/15   2/15
DUCK PIER NC     2000   71 73   30/ 12/ 13 1010.2S
44100 DUCK FRF   2000      73                N/A     2/ 7
44056 DUCK FRF   2000                        N/A     2/ 8
OREGON INLET NC  2000   73 73   20/ 12/ 14 1010.3F
HATTERAS NC      2000   72 75   20/ 14/ 17 1010.4F
DIAMOND SHLS NC  2000   74     350/ 16/ 17 1009.3F   4/ 7   2/ 7
CAPE LOOKOUT NC  1900   74      40/ 13/ 15 1009.9F
$$



USA.gov is the U.S. government's official web portal to all federal, state and local government web resources and services.